Regional Weather Roundup
Issued by NWS

Home | Current Version | Previous Version | Text Only | Print | Product List | Glossary Off
Versions: 1 2 3 4 5 6 7 8 9 10 11 12 13 14 15 16 17 18 19 20 21 22 23 24 25 26 27 28 29 30 31 32 33 34 35 36 37 38 39 40 41 42 43 44 45 46 47 48 49 50

000
ASUS43 KIND 221609
RWRIN

WEATHER ROUNDUP FOR INDIANA
NATIONAL WEATHER SERVICE INDIANAPOLIS IN
1100 AM EST THU FEB 22 2018

NOTE: "FAIR" INDICATES FEW OR NO CLOUDS BELOW 12,000 FEET WITH NO
SIGNIFICANT WEATHER AND/OR OBSTRUCTIONS TO VISIBILITY.

* - STATION DOES NOT REPORT WEATHER SUCH AS PRECIPITATION OR FOG.

+ - STATION NOT QUALITY CONTROLLED BY THE NATIONAL WEATHER SERVICE.
    USE DATA WITH CAUTION...ESPECIALLY DEWPOINT AND RELATIVE
    HUMIDITY OBSERVATIONS.

INZ001>003-010>013-019-020-221700-
NORTHWEST INDIANA

CITY           SKY/WX    TMP DP  RH WIND       PRES   REMARKS
GARY /AIRPORT/ PTSUNNY   36  32  87 E14       30.56R WCI  27
LA PORTE +     CLOUDY    36  29  78 E12       30.56R WCI  27
MICHIGAN CITY+ CLOUDY    36  32  87 E6        30.56S WCI  31
MONTICELLO +   CLOUDY    37  33  89 NE12      30.50F WCI  29
RENSSELAER +   CLOUDY    37  32  81 E16       30.51F WCI  28
VALPARAISO     CLOUDY    38  31  76 E15       30.55R WCI  29

$$

LMZ046-743>745-221700-
SOUTHERN LAKE MICHIGAN

STATION/POSITION TIME  TEMP    WIND        PRES    WAVE
                       AIR SEA DIR/SP/G            HT
                 (UTC) (F)     (DEG/KT/KT) (MB)    (FT)
BURNS HARBOR     1540   33      60/ 11/ 12 1034.9R
MICHIGAN CITY    1540   34      70/  9/ 11   N/A

$$

INZ004-005-014>016-021>024-221700-
NORTH CENTRAL INDIANA

CITY           SKY/WX    TMP DP  RH WIND       PRES   REMARKS
ELKHART        FAIR      36  27  69 E12       30.57R WCI  27
GOSHEN         CLOUDY    36  27  69 E13       30.57R WCI  27
LOGANSPORT +   CLOUDY    36  32  87 E10       30.53S WCI  28
PERU/GRISSOM   LGT RAIN  37  37 100 E15       30.51R WCI  28
ROCHESTER +    CLOUDY    37  34  87 E12       30.54R WCI  30
SOUTH BEND     CLOUDY    35  27  72 E10       30.57R WCI  27
WARSAW +       CLOUDY    34  32  93 MISG      30.55F

$$

INZ006>009-017-018-025>027-221700-
NORTHEAST INDIANA

CITY           SKY/WX    TMP DP  RH WIND       PRES   REMARKS
AUBURN +       MIX PCPN  32  32 100 NE10      30.58R WCI  24
FORT WAYNE     CLOUDY    35  32  88 NE16      30.56R WCI  25
HUNTINGTON +   CLOUDY    35  32  91 E13G18    30.54R WCI  26
KENDALLVILLE + CLOUDY    33  28  81 E15       30.57R WCI  22

$$

INZ028-029-035-036-043>045-051>053-221700-
WEST CENTRAL INDIANA

CITY           SKY/WX    TMP DP  RH WIND       PRES   REMARKS
CRAWFORDSVL +  CLOUDY    35  35 100 E14G20      N/A  FOG     WCI  26
GREENCASTLE +  CLOUDY    37  36  93 E10       30.43S WCI  30
LAFAYETTE      CLOUDY    37  36  96 E18       30.47F WCI  27
TERRE HAUTE    CLOUDY    42  39  89 E15       30.42R

$$

INZ030>032-037>040-046>048-054>057-064-065-221700-
CENTRAL INDIANA

CITY           SKY/WX    TMP DP  RH WIND       PRES   REMARKS
ANDERSON       CLOUDY    36  34  93 E12G23    30.50S WCI  27
COLUMBUS       CLOUDY    37 N/A N/A NE17      30.44S WCI  28
FISHERS *+     CLOUDY    36  36 100 NE9       30.47F WCI  29
GREENWOOD *+   CLOUDY   N/A N/A N/A NE16G23   30.45F
INDIANAPOLIS   PTSUNNY   39  35  86 NE16G23   30.44F WCI  30
-EAGLE CREEK   CLOUDY    39  35  86 E10       30.45S WCI  32
KOKOMO +       CLOUDY    36  34  92 E14       30.51R WCI  27
MARION +       CLOUDY    35  33  92 E17G23    30.51R WCI  24
MT COMFORT *+  CLOUDY    36  36 100 NE16G24   30.46F WCI  26
SHELBYVILLE    CLOUDY    40  35  83 NE22G28   30.42F WCI  30
ZIONSVILLE +   CLOUDY    35  34  96 E14       30.48S FOG     WCI  25

$$

INZ033-034-041-042-049-050-058-059-221700-
EAST CENTRAL INDIANA

CITY           SKY/WX    TMP DP  RH WIND       PRES   REMARKS
MUNCIE         LGT RAIN  37  34  89 E16G24    30.49F WCI  28
RICHMOND +     CLOUDY    36  36 100 NE15      30.48F FOG     WCI  26

$$

INZ060-061-067>069-081>083-085>088-221700-
SOUTHWEST INDIANA

CITY           SKY/WX    TMP DP  RH WIND       PRES   REMARKS
EVANSVILLE     CLOUDY    45  44  97 E9        30.39R
HUNTINGBURG +  CLOUDY    44  42  93 NE12      30.39R
WASHINGTON +   CLOUDY    45  42  91 E15       30.39S

$$

INZ062-063-066-070>080-084-089>092-221700-
SOUTH CENTRAL AND SOUTHEAST INDIANA

CITY           SKY/WX    TMP DP  RH WIND       PRES   REMARKS
BATESVILLE +   PTSUNNY   39  39 100 MISG      30.43F
BEDFORD +      CLOUDY    43  39  87 NE13G18   30.39S
BLOOMINGTON    CLOUDY    42  39  89 E12       30.40S
FRENCH LICK *+ CLOUDY    41 N/A N/A NE13      30.38S
MADISON *+     CLOUDY    43  41  93 NE10      30.43F
NORTH VERNON + CLOUDY    41  39  93 NE14G21   30.42F
SEYMOUR +      CLOUDY    45  41  87 NE14      30.42S

$$





USA.gov is the U.S. government's official web portal to all federal, state and local government web resources and services.